Location: Newark
(45.9456°N, 15.4064°E)
Time: 03:53:17
(UTC+00:00)

SR - Pass Details

Date: 02 February 2020
Orbit: 575 x 881 km, 66.7° (Epoch: 16 February)

Event Time Altitude Azimuth Distance (km) Brightness Sun altitude
Rises 01:10:02 0° 327° (NNW) 3,450 - -52.1°
Reaches altitude 10° 01:14:31 10° 359° (N) 2,460 - -51.5°
Maximum altitude 01:16:31 12° 20° (NNE) 2,304 - -51.2°
Drops below altitude 10° 01:18:29 10° 41° (NE) 2,397 - -50.9°
Exits shadow 01:21:23 - 65° (ENE) 2,915 ? -50.5°
Sets 01:22:41 0° 73° (ENE) 3,246 ? -50.3°
